Location: Unspecified
(47.6578°N, 23.5640°E)
Time: 22:05:56
(UTC+02:00)

ISS - Pass Details

Date: 07 December 2017
Orbit: 402 x 407 km, 51.6° (Epoch: 13 December)

Event Time Altitude Azimuth Distance (km) Brightness Sun altitude
Rises 19:27:47 0° 292° (WNW) 2,331 1.0 -28.2°
Reaches altitude 10° 19:29:54 10° 296° (WNW) 1,469 -0.3 -28.6°
Enters shadow 19:30:27 14° 298° (WNW) 1,250 -0.7 -28.7°
